Regional Weather Roundup
Issued by NWS

Home | Current Version | Previous Version | Graphics & Text | Print | Product List | Glossary On
Versions: 1 2 3 4 5 6 7 8 9 10 11 12 13 14 15 16 17 18 19 20 21 22 23 24 25 26 27 28 29 30 31 32 33 34 35 36 37 38 39 40 41 42 43 44 45 46 47 48 49 50
000
ASUS43 KBIS 020810
RWRND

NORTH DAKOTA REGIONAL WEATHER ROUNDUP
NATIONAL WEATHER SERVICE BISMARCK ND
300 AM CDT TUE JUN 02 2015

NOTE: "FAIR" INDICATES FEW OR NO CLOUDS BELOW 12,000 FEET WITH NO
SIGNIFICANT WEATHER AND/OR OBSTRUCTIONS TO VISIBILITY.


NDZ001>003-009>011-017-020900-
NORTHWEST NORTH DAKOTA

CITY           SKY/WX    TMP DP  RH WIND       PRES   REMARKS
WILLISTON      CLOUDY    63  55  75 NE7       29.83R
MINOT          CLOUDY    60  58  92 N7        29.79F
MINOT AFB      CLOUDY    59  59 100 N7        29.79S
$$

NDZ018>021-031>035-040>046-020900-
SOUTHWEST NORTH DAKOTA

CITY           SKY/WX    TMP DP  RH WIND       PRES   REMARKS
BISMARCK       TSTM      63  60  90 N8G25     29.84R FOG
DICKINSON      RAIN      61  57  87 W18       29.84R
GARRISON         N/A     61  58  90 S3        29.81F
HETTINGER ARPT CLOUDY    67  57  70 N28G35    29.80R
$$

NDZ004>008-012>016-024-026-027-054-020900-
NORTHEAST NORTH DAKOTA

CITY           SKY/WX    TMP DP  RH WIND       PRES   REMARKS
GRAND FORKS    RAIN      57  55  93 CALM      29.90S FOG
GRND FRKS AFB  LGT RAIN  57  55  94 SE8       29.89F
DEVILS LAKE    CLOUDY    61  55  82 SE15G24   29.81S
$$

NDZ022-023-025-028>030-036>039-047>053-020900-
SOUTHEAST NORTH DAKOTA

CITY           SKY/WX    TMP DP  RH WIND       PRES   REMARKS
FARGO          CLOUDY    64  46  52 S20G29    29.87F
JAMESTOWN      CLOUDY    64  56  75 S13       29.80F
$$




USA.gov is the U.S. government's official web portal to all federal, state and local government web resources and services.